EW0496 Weather Reports


Display with metric or nautical units.
time (UTC)temp
F
wind
direction
speed
MPH
gust
MPH
rain 1hr
in
rain 24hr
in
rain mn
in
humidity
%
barometer
mb
20210925045105 57 0 0.0 0.0 0.00 0.05 0.00 91 1018.5
20210925044605 57 0 0.0 0.0 0.00 0.05 0.00 91 1018.5
20210925044104 57 0 0.0 0.0 0.00 0.06 0.00 90 1018.5
20210925043605 57 0 0.0 0.0 0.00 0.06 0.00 91 1018.4
20210925043104 57 0 0.0 0.0 0.00 0.06 0.00 90 1018.5
20210925042604 57 0 0.0 0.0 0.00 0.06 0.00 90 1018.6
20210925042105 58 0 0.0 0.0 0.00 0.06 0.00 90 1018.6
20210925041605 58 0 0.0 0.0 0.00 0.06 0.00 90 1018.7
20210925041107 58 0 0.0 0.0 0.00 0.06 0.00 89 1018.7
20210925040605 58 0 0.0 0.0 0.00 0.06 0.00 89 1018.7
20210925040105 58 0 0.0 0.0 0.00 0.06 0.00 88 1018.8
20210925035604 58 0 0.0 0.0 0.00 0.06 0.06 88 1018.8
20210925035104 58 0 0.0 0.0 0.00 0.06 0.06 88 1018.9
20210925034604 58 0 0.0 0.0 0.00 0.06 0.06 88 1018.9
20210925034105 58 0 0.0 0.0 0.00 0.06 0.06 87 1018.9
20210925033604 59 0 0.0 0.0 0.00 0.07 0.06 87 1018.7
20210925033104 59 0 0.0 0.0 0.00 0.07 0.06 88 1018.7
20210925032605 59 0 0.0 0.0 0.00 0.07 0.06 87 1018.8
20210925032105 59 0 0.0 0.0 0.00 0.07 0.06 87 1018.7
20210925031605 59 0 0.0 0.0 0.00 0.07 0.06 87 1018.8
20210925031105 59 0 0.0 0.0 0.00 0.07 0.06 86 1018.8
20210925030605 59 0 0.0 0.0 0.00 0.07 0.06 87 1018.7
20210925030105 59 0 0.0 0.0 0.00 0.07 0.06 86 1018.7
20210925025604 59 0 0.0 0.0 0.00 0.07 0.06 87 1018.7
20210925025105 58 0 0.0 0.0 0.00 0.07 0.06 88 1018.8
20210925024604 59 0 0.0 0.0 0.00 0.08 0.06 88 1018.8
20210925024104 59 0 0.0 0.0 0.00 0.08 0.06 89 1018.8
20210925023605 59 0 0.0 0.0 0.00 0.08 0.06 89 1018.9
20210925023104 59 0 0.0 0.0 0.00 0.08 0.06 89 1018.9
20210925022604 59 0 0.0 0.0 0.00 0.08 0.06 89 1019.0
20210925022105 59 0 0.0 0.0 0.00 0.08 0.06 88 1019.0
20210925021605 59 0 0.0 0.0 0.00 0.08 0.06 88 1019.0
20210925021105 59 0 0.0 0.0 0.00 0.08 0.06 88 1019.0
20210925020604 59 0 0.0 0.0 0.00 0.08 0.06 87 1018.8
20210925020105 60 0 0.0 0.0 0.00 0.08 0.06 87 1018.9
20210925015606 60 0 0.0 0.0 0.00 0.08 0.06 87 1019.0
20210925015105 60 0 0.0 0.0 0.00 0.08 0.06 86 1018.9
20210925014605 60 0 0.0 0.0 0.00 0.08 0.06 86 1018.9
20210925014105 60 0 0.0 0.0 0.00 0.08 0.06 86 1019.0
20210925013604 61 0 0.0 0.0 0.00 0.08 0.06 86 1018.9
20210925013104 61 0 0.0 0.0 0.00 0.08 0.06 85 1018.9
20210925012605 61 0 0.0 0.0 0.00 0.08 0.06 85 1018.9
20210925012105 61 0 0.0 0.0 0.00 0.09 0.06 85 1018.9
20210925011604 61 0 0.0 0.0 0.00 0.09 0.06 84 1018.8
20210925011104 61 0 0.0 0.0 0.00 0.09 0.06 85 1018.8
20210925010605 61 0 0.0 0.0 0.00 0.09 0.06 84 1018.8
20210925005605 61 0 0.0 0.0 0.00 0.09 0.06 83 1018.8
20210925005104 62 0 0.0 0.0 0.00 0.09 0.06 83 1018.7
20210925004605 62 0 0.0 0.0 0.00 0.09 0.06 83 1018.6
20210925004104 62 0 0.0 0.0 0.00 0.09 0.06 82 1018.7
20210925003605 62 0 0.0 0.0 0.00 0.10 0.06 81 1018.6
20210925003104 62 0 0.0 0.0 0.00 0.10 0.06 81 1018.6
20210925002605 62 0 0.0 0.0 0.00 0.10 0.06 80 1018.5
20210925002104 63 0 0.0 0.0 0.00 0.10 0.06 80 1018.4
20210925001605 63 0 0.0 0.0 0.00 0.10 0.06 79 1018.3
20210925001104 63 0 0.0 0.0 0.00 0.10 0.06 78 1018.3
20210925000605 63 0 0.0 0.0 0.00 0.10 0.06 78 1018.3
20210925000106 64 0 0.0 0.0 0.00 0.10 0.06 78 1018.2
20210924235605 64 0 0.0 0.0 0.00 0.10 0.06 77 1018.2
20210924235104 64 0 0.0 0.0 0.00 0.10 0.06 76 1018.2
20210924234604 64 0 0.0 0.0 0.00 0.10 0.06 76 1018.1
20210924234104 65 0 0.0 0.0 0.00 0.10 0.06 76 1018.1
20210924233604 65 16 0.0 0.0 0.00 0.11 0.06 74 1018.1
20210924233105 66 16 0.0 0.0 0.00 0.11 0.06 73 1018.2
20210924232604 66 16 0.0 0.0 0.00 0.11 0.06 73 1018.1
20210924232104 66 16 0.0 0.0 0.00 0.11 0.06 72 1018.1
20210924231605 67 16 0.0 0.0 0.00 0.11 0.06 71 1018.1
20210924231104 67 16 0.0 0.0 0.00 0.11 0.06 69 1018.1
20210924230604 68 16 0.0 0.0 0.00 0.11 0.06 69 1018.0
20210924230106 68 16 0.0 0.0 0.00 0.12 0.06 68 1018.1
20210924225604 68 16 0.0 0.0 0.00 0.12 0.06 68 1018.1
20210924225105 69 16 0.0 0.0 0.00 0.12 0.06 66 1018.0
20210924224604 69 16 0.0 1.0 0.00 0.12 0.06 64 1018.0
20210924224104 69 13 0.0 2.0 0.00 0.12 0.06 64 1018.0
20210924223604 69 12 0.0 1.0 0.00 0.12 0.06 63 1017.9
20210924223105 70 12 1.0 2.0 0.00 0.12 0.06 63 1017.8
20210924222603 70 15 1.0 2.0 0.00 0.12 0.06 61 1017.8
20210924222104 70 10 1.0 3.0 0.00 0.12 0.06 60 1017.9
20210924221604 70 29 1.0 3.0 0.00 0.12 0.06 59 1017.9
20210924221104 70 5 2.0 3.0 0.00 0.13 0.06 59 1017.8
20210924220604 71 11 1.0 3.0 0.00 0.13 0.06 59 1017.8
20210924220105 71 24 1.0 3.0 0.00 0.13 0.06 58 1017.7
20210924215604 71 1 2.0 3.0 0.00 0.13 0.06 57 1017.7
20210924215104 72 0 2.0 3.0 0.00 0.13 0.06 56 1017.6
20210924214603 72 355 1.0 3.0 0.00 0.13 0.06 55 1017.5
20210924214103 72 15 1.0 3.0 0.00 0.14 0.06 56 1017.6
20210924213604 72 30 1.0 3.0 0.00 0.14 0.06 54 1017.5
20210924213104 73 7 0.0 5.0 0.00 0.14 0.06 55 1017.5
20210924212604 73 18 2.0 5.0 0.00 0.14 0.06 54 1017.5
20210924212104 73 33 1.0 8.0 0.00 0.14 0.06 55 1017.5
20210924211604 73 11 3.0 9.0 0.00 0.14 0.06 54 1017.5
20210924211104 73 5 1.0 6.0 0.00 0.14 0.06 56 1017.5
20210924210604 73 1 2.0 9.0 0.00 0.14 0.06 56 1017.6
20210924205604 73 8 2.0 3.0 0.00 0.15 0.06 54 1017.6
20210924205104 73 356 2.0 5.0 0.00 0.15 0.06 54 1017.6
20210924204604 73 351 3.0 8.0 0.00 0.15 0.06 55 1017.6
20210924204105 73 357 3.0 10.0 0.00 0.15 0.06 54 1017.6
20210924203604 74 5 1.0 8.0 0.00 0.16 0.06 54 1017.6
20210924203103 74 8 2.0 5.0 0.00 0.16 0.06 55 1017.6
20210924202604 74 13 1.0 3.0 0.00 0.16 0.06 53 1017.6
20210924202105 74 358 2.0 3.0 0.00 0.16 0.06 53 1017.6
20210924201605 74 47 2.0 6.0 0.00 0.16 0.06 52 1017.6
20210924201104 74 9 1.0 8.0 0.00 0.17 0.06 53 1017.6
20210924200604 74 62 2.0 5.0 0.00 0.17 0.06 54 1017.6
20210924200105 74 69 2.0 6.0 0.00 0.17 0.06 53 1017.7
20210924195606 74 355 2.0 5.0 0.00 0.17 0.06 53 1017.6
20210924195104 74 17 2.0 6.0 0.00 0.18 0.06 53 1017.6
20210924194604 74 3 2.0 5.0 0.00 0.18 0.06 54 1017.7
20210924194104 74 349 3.0 8.0 0.00 0.18 0.06 54 1017.7
20210924193605 73 80 2.0 3.0 0.00 0.18 0.06 54 1017.7
20210924193104 74 357 2.0 9.0 0.00 0.19 0.06 53 1017.7
20210924192604 74 55 2.0 3.0 0.00 0.19 0.06 55 1017.8
20210924192104 74 68 2.0 8.0 0.00 0.20 0.06 57 1017.8
20210924191603 74 27 2.0 9.0 0.00 0.20 0.06 56 1017.8
20210924191103 73 351 2.0 7.0 0.00 0.20 0.06 54 1017.7
20210924190604 73 11 2.0 6.0 0.00 0.21 0.06 57 1017.8
20210924185603 74 18 2.0 12.0 0.00 0.22 0.06 54 1017.8
20210924185104 74 23 2.0 8.0 0.00 0.22 0.06 54 1017.9
20210924184603 74 12 1.0 8.0 0.00 0.22 0.06 54 1017.9
20210924184104 74 23 1.0 5.0 0.00 0.23 0.06 55 1018.0
20210924183603 74 352 3.0 9.0 0.00 0.23 0.06 56 1018.0
20210924183104 74 0 1.0 3.0 0.00 0.24 0.06 55 1018.1
20210924182604 74 91 1.0 3.0 0.00 0.24 0.06 52 1018.1
20210924182104 73 8 1.0 8.0 0.00 0.25 0.06 52 1018.2
20210924181604 73 348 3.0 9.0 0.00 0.26 0.06 56 1018.2
20210924181103 73 7 1.0 5.0 0.00 0.27 0.06 56 1018.3
20210924180605 73 23 1.0 6.0 0.00 0.28 0.06 55 1018.3
20210924180103 73 54 1.0 6.0 0.00 0.29 0.06 56 1018.3
20210924175605 72 336 5.0 10.0 0.00 0.30 0.06 57 1018.4
20210924175103 73 345 2.0 6.0 0.00 0.32 0.06 57 1018.4
20210924174605 72 12 2.0 9.0 0.00 0.32 0.06 56 1018.5
20210924174106 72 331 2.0 5.0 0.00 0.32 0.06 56 1018.6
20210924173607 72 339 2.0 10.0 0.00 0.32 0.06 55 1018.7
20210924173106 72 358 4.0 8.0 0.00 0.32 0.06 56 1018.7
20210924172606 72 335 2.0 10.0 0.00 0.32 0.06 56 1018.8
20210924172106 72 6 5.0 9.0 0.00 0.32 0.06 56 1018.9
20210924171606 72 0 4.0 9.0 0.00 0.32 0.06 56 1019.0
20210924171107 72 10 4.0 10.0 0.00 0.32 0.06 54 1019.0
20210924170606 72 12 5.0 12.0 0.00 0.32 0.06 54 1019.0
20210924170106 72 19 2.0 10.0 0.00 0.32 0.06 56 1019.1
20210924165606 71 355 5.0 9.0 0.01 0.32 0.06 55 1019.2
20210924165106 71 355 4.0 12.0 0.01 0.32 0.06 57 1019.2
20210924164605 71 3 4.0 9.0 0.01 0.32 0.06 57 1019.2
20210924164106 71 1 4.0 9.0 0.01 0.32 0.06 56 1019.3
20210924163606 71 1 2.0 10.0 0.01 0.32 0.06 58 1019.3
20210924163106 71 7 3.0 10.0 0.01 0.32 0.06 57 1019.4
20210924162606 71 3 6.0 10.0 0.01 0.32 0.06 57 1019.3
20210924162107 71 317 2.0 10.0 0.01 0.32 0.06 58 1019.2
20210924161606 71 340 5.0 12.0 0.01 0.32 0.06 58 1019.3
20210924161105 71 359 3.0 9.0 0.01 0.32 0.06 58 1019.3
20210924160607 71 13 2.0 6.0 0.01 0.32 0.06 60 1019.3
20210924160106 70 341 6.0 12.0 0.01 0.32 0.06 58 1019.3
20210924155605 70 351 5.0 12.0 0.00 0.31 0.05 59 1019.4
20210924155105 70 4 6.0 12.0 0.00 0.31 0.05 58 1019.5
20210924154605 71 351 5.0 12.0 0.00 0.31 0.05 58 1019.6
20210924154106 71 1 6.0 12.0 0.00 0.31 0.05 58 1019.6
20210924153605 70 353 3.0 8.0 0.00 0.31 0.05 59 1019.6
20210924153105 70 313 5.0 10.0 0.00 0.31 0.05 58 1019.6
20210924152605 70 349 6.0 12.0 0.00 0.31 0.05 57 1019.7
20210924152106 70 356 5.0 13.0 0.00 0.31 0.05 59 1019.7
20210924151606 70 342 3.0 12.0 0.00 0.31 0.05 60 1019.7
20210924151107 70 332 5.0 12.0 0.00 0.31 0.05 58 1019.7
20210924150606 70 347 3.0 12.0 0.00 0.31 0.05 58 1019.7
20210924150106 69 346 4.0 13.0 0.00 0.31 0.05 61 1019.6
20210924145606 69 10 6.0 13.0 0.00 0.31 0.05 58 1019.6
20210924145106 69 354 7.0 17.0 0.00 0.31 0.05 58 1019.6
20210924144606 69 331 2.0 8.0 0.00 0.31 0.05 60 1019.6
20210924144106 69 352 6.0 12.0 0.00 0.31 0.05 59 1019.7
20210924143606 69 353 7.0 14.0 0.00 0.31 0.05 59 1019.6
20210924143106 69 336 4.0 10.0 0.00 0.31 0.05 60 1019.5
20210924142606 69 345 5.0 13.0 0.00 0.31 0.05 58 1019.5
20210924142105 69 355 5.0 12.0 0.00 0.31 0.05 58 1019.6
20210924141607 69 352 2.0 12.0 0.00 0.31 0.05 59 1019.6
20210924141105 69 350 5.0 12.0 0.00 0.31 0.05 61 1019.6
20210924140605 68 17 4.0 9.0 0.00 0.31 0.05 60 1019.6
20210924140105 68 349 6.0 13.0 0.00 0.31 0.05 61 1019.6
20210924135605 68 342 3.0 14.0 0.00 0.31 0.05 61 1019.6
20210924135105 69 11 3.0 9.0 0.00 0.31 0.05 63 1019.5
20210924134605 68 351 4.0 13.0 0.00 0.31 0.05 64 1019.4
20210924134106 68 329 2.0 14.0 0.00 0.31 0.05 65 1019.3
20210924133606 68 0 3.0 12.0 0.00 0.31 0.05 64 1019.3
20210924133106 68 342 6.0 15.0 0.00 0.31 0.05 63 1019.3
20210924132605 68 341 6.0 16.0 0.00 0.31 0.05 64 1019.1
20210924132106 68 358 5.0 15.0 0.00 0.31 0.05 65 1019.1
20210924131605 67 358 3.0 8.0 0.00 0.31 0.05 68 1019.1
20210924131105 67 343 4.0 9.0 0.01 0.31 0.05 68 1019.0
20210924130606 66 351 6.0 12.0 0.01 0.31 0.05 70 1019.0
20210924130107 65 354 3.0 10.0 0.01 0.31 0.05 76 1018.9
20210924125605 64 348 2.0 3.0 0.01 0.31 0.05 77 1018.8
20210924125106 64 0 0.0 0.0 0.01 0.31 0.05 78 1018.7
20210924124605 63 0 0.0 0.0 0.01 0.31 0.05 78 1018.6
20210924124106 63 0 0.0 0.0 0.01 0.31 0.05 77 1018.6
20210924123605 64 0 0.0 0.0 0.01 0.31 0.05 75 1018.6
20210924123105 64 0 0.0 0.0 0.01 0.31 0.05 75 1018.6
20210924122605 64 0 0.0 0.0 0.01 0.31 0.05 72 1018.6
20210924122105 64 0 0.0 0.0 0.01 0.31 0.05 72 1018.6
20210924121605 64 0 0.0 0.0 0.01 0.31 0.05 72 1018.6
20210924121105 64 0 0.0 0.0 0.00 0.30 0.04 72 1018.4
20210924120605 63 0 0.0 0.0 0.00 0.30 0.04 74 1018.4
20210924120106 63 0 0.0 0.0 0.00 0.30 0.04 79 1018.4
20210924115605 63 0 0.0 0.0 0.00 0.30 0.04 80 1018.4
20210924115106 62 0 0.0 0.0 0.00 0.30 0.04 81 1018.4
20210924114605 62 0 0.0 0.0 0.00 0.30 0.04 81 1018.3
20210924114105 62 0 0.0 0.0 0.00 0.30 0.04 83 1018.3
20210924113605 62 0 0.0 0.0 0.00 0.30 0.04 81 1018.4
20210924113106 62 0 0.0 0.0 0.00 0.30 0.04 81 1018.3
20210924112606 62 0 0.0 0.0 0.00 0.30 0.04 81 1018.2
20210924112105 62 0 0.0 0.0 0.00 0.30 0.04 78 1018.2
20210924111606 62 0 0.0 0.0 0.00 0.30 0.04 79 1018.1
20210924111105 62 0 0.0 0.0 0.00 0.30 0.04 78 1017.9
20210924110607 61 0 0.0 0.0 0.00 0.30 0.04 79 1017.9
20210924110105 61 0 0.0 0.0 0.00 0.30 0.04 83 1018.0
20210924105605 61 0 0.0 0.0 0.00 0.30 0.04 85 1017.9
20210924105105 61 0 0.0 0.0 0.00 0.30 0.04 86 1017.9
20210924104606 61 0 0.0 0.0 0.00 0.30 0.04 87 1017.9
20210924104105 61 0 0.0 0.0 0.00 0.30 0.04 86 1017.9
20210924103605 61 0 0.0 0.0 0.00 0.30 0.04 85 1018.0
20210924103106 61 0 0.0 0.0 0.00 0.30 0.04 84 1017.8
20210924102605 61 0 0.0 0.0 0.00 0.30 0.04 84 1017.6
20210924102106 60 0 0.0 0.0 0.00 0.30 0.04 83 1017.5
20210924101605 60 0 0.0 0.0 0.00 0.30 0.04 87 1017.7
20210924101105 60 0 0.0 0.0 0.01 0.30 0.04 88 1017.7
20210924100607 61 0 0.0 0.0 0.01 0.30 0.04 88 1017.7
20210924100105 60 0 0.0 0.0 0.01 0.30 0.04 88 1017.5
20210924095605 60 0 0.0 0.0 0.01 0.30 0.04 88 1017.4
20210924095105 61 0 0.0 0.0 0.01 0.30 0.04 89 1017.4
20210924094608 61 0 0.0 0.0 0.01 0.30 0.04 87 1017.3
20210924094105 61 0 0.0 0.0 0.01 0.30 0.04 88 1017.1
20210924093605 61 0 0.0 0.0 0.01 0.30 0.04 89 1017.2
20210924093105 61 0 0.0 0.0 0.01 0.30 0.04 89 1017.3
20210924084105 61 0 0.0 0.0 0.00 0.29 0.03 87 1016.8
20210924083606 61 0 0.0 0.0 0.00 0.29 0.03 88 1016.9
20210924083105 61 0 0.0 0.0 0.01 0.29 0.03 88 1016.9
20210924082605 61 0 0.0 0.0 0.01 0.29 0.03 88 1016.8
20210924082106 61 0 0.0 0.0 0.01 0.29 0.03 88 1016.8
20210924081605 61 0 0.0 0.0 0.01 0.29 0.03 87 1016.8
20210924081105 60 0 0.0 0.0 0.01 0.29 0.03 87 1016.6
20210924080605 60 0 0.0 0.0 0.01 0.29 0.03 86 1016.5
20210924080105 60 0 0.0 0.0 0.01 0.29 0.03 88 1016.6
20210924075605 60 0 0.0 0.0 0.01 0.29 0.03 87 1016.5
20210924075105 60 0 0.0 0.0 0.01 0.29 0.03 89 1016.3
20210924074605 60 0 0.0 0.0 0.01 0.29 0.03 92 1016.3
20210924074105 60 0 0.0 0.0 0.01 0.29 0.03 93 1016.3
20210924073605 61 0 0.0 0.0 0.01 0.29 0.03 93 1016.2
20210924073105 61 0 0.0 0.0 0.00 0.28 0.02 92 1016.2
20210924072605 61 0 0.0 0.0 0.00 0.28 0.02 92 1016.1
20210924072105 61 0 0.0 0.0 0.00 0.28 0.02 93 1016.0
20210924071604 62 0 0.0 0.0 0.00 0.28 0.02 95 1016.1
20210924071105 62 0 0.0 0.0 0.00 0.28 0.02 96 1016.0
20210924070605 62 0 0.0 0.0 0.00 0.28 0.02 96 1016.0
20210924070105 62 0 0.0 0.0 0.00 0.28 0.02 96 1016.1
20210924065605 62 0 0.0 0.0 0.00 0.28 0.02 96 1016.0
20210924065105 62 0 0.0 0.0 0.00 0.28 0.02 96 1015.9
20210924064605 62 0 0.0 0.0 0.01 0.28 0.02 96 1015.8
20210924064106 62 0 0.0 0.0 0.01 0.28 0.02 96 1015.7
20210924063605 62 0 0.0 0.0 0.01 0.28 0.02 96 1015.7
20210924063105 62 0 0.0 0.0 0.01 0.28 0.02 96 1015.5
20210924062605 62 0 0.0 0.0 0.01 0.28 0.02 96 1015.5
20210924062105 62 0 0.0 0.0 0.01 0.28 0.02 96 1015.5
20210924061605 62 0 0.0 0.0 0.01 0.28 0.02 96 1015.6
20210924061105 62 0 0.0 0.0 0.01 0.28 0.02 96 1015.6
20210924060605 63 0 0.0 0.0 0.01 0.28 0.02 96 1015.7
20210924060107 63 0 0.0 0.0 0.01 0.28 0.02 96 1015.7
20210924055605 63 0 0.0 0.0 0.01 0.28 0.02 96 1015.7
20210924055104 63 0 0.0 0.0 0.01 0.28 0.02 97 1015.6
20210924054604 63 0 0.0 0.0 0.00 0.27 0.01 97 1015.7
20210924054104 63 0 0.0 0.0 0.01 0.27 0.01 97 1015.6
20210924053605 63 0 0.0 0.0 0.01 0.27 0.01 97 1015.6
20210924053105 63 0 0.0 0.0 0.01 0.27 0.01 97 1015.5
20210924052604 63 0 0.0 0.0 0.01 0.27 0.01 97 1015.3
20210924052105 63 0 0.0 0.0 0.01 0.27 0.01 97 1015.2
20210924051605 63 0 0.0 0.0 0.01 0.27 0.01 97 1015.3
20210924051105 63 0 0.0 0.0 0.01 0.27 0.01 97 1015.5
20210924050604 63 0 0.0 0.0 0.01 0.27 0.01 97 1015.5
20210924050107 63 0 0.0 0.0 0.01 0.27 0.01 97 1015.6
20210924045605 63 0 0.0 0.0 0.01 0.27 0.01 97 1015.6